,,,PA_Meas_PMT16A,,PR_Meas_QMR101_102,,RH_Meas_QMH101,,SR_Meas_QMS101,,TA_Meas_QMH101,,GenWind,,GenWind,
date,time,status,PA,status,PR,status,RH,status,SR,status,TA,status,DirAvg,status,SpdAvg,
2012-06-12, 00:00:04,VALID,1003.6,VALID,0,VALID,95.7365,VALID,0,VALID,21.887,VALID,314,VALID,1.18945,
2012-06-12, 00:01:04,VALID,1003.61,VALID,0,VALID,95.7288,VALID,0,VALID,21.8853,VALID,326,VALID,1.56836,
2012-06-12, 00:02:04,VALID,1003.63,VALID,0,VALID,95.7288,VALID,0,VALID,21.8853,VALID,336,VALID,1.79844,
2012-06-12, 00:03:04,VALID,1003.6,VALID,0.5,VALID,95.7212,VALID,0,VALID,21.9065,VALID,336,VALID,2.10664,
2012-06-12, 00:04:04,VALID,1003.64,VALID,0,VALID,95.7212,VALID,0,VALID,21.8853,VALID,333,VALID,2.68477,
2012-06-12, 00:05:04,VALID,1003.64,VALID,0,VALID,95.7212,VALID,0,VALID,21.9065,VALID,328,VALID,1.2707,
2012-06-12, 00:06:04,VALID,1003.64,VALID,0.5,VALID,95.7212,VALID,0,VALID,21.9065,VALID,318,VALID,1.96484,
2012-06-12, 00:07:04,VALID,1003.65,VALID,0,VALID,95.7136,VALID,0,VALID,21.9065,VALID,324,VALID,1.36016,
2012-06-12, 00:08:04,VALID,1003.68,VALID,0,VALID,95.706,VALID,0,VALID,21.9065,VALID,332,VALID,1.25937,
2012-06-12, 00:09:04,VALID,1003.6,VALID,0.5,VALID,95.706,VALID,0,VALID,21.9065,VALID,309,VALID,1.19414,
2012-06-12, 00:10:04,VALID,1003.51,VALID,0,VALID,95.7212,VALID,0,VALID,21.887,VALID,3,VALID,0.684766,
2012-06-12, 00:11:04,VALID,1003.46,VALID,0,VALID,95.7136,VALID,0,VALID,21.9065,VALID,10,VALID,0.307813,
2012-06-12, 00:12:04,VALID,1003.41,VALID,0,VALID,95.6907,VALID,0,VALID,21.9065,VALID,351,VALID,1.07578,
2012-06-12, 00:13:04,VALID,1003.38,VALID,0,VALID,95.706,VALID,0,VALID,21.9065,VALID,327,VALID,0.621875,
2012-06-12, 00:14:04,VALID,1003.43,VALID,0.5,VALID,95.6907,VALID,0,VALID,21.9065,VALID,244,VALID,1.42852,
2012-06-12, 00:15:04,VALID,1003.45,VALID,0,VALID,95.6983,VALID,0,VALID,21.8853,VALID,259,VALID,1.65703,
2012-06-12, 00:16:04,VALID,1003.44,VALID,0,VALID,95.6983,VALID,0,VALID,21.9065,VALID,206,VALID,1.73086,
2012-06-12, 00:17:04,VALID,1003.45,VALID,0.5,VALID,95.6831,VALID,0,VALID,21.9065,VALID,218,VALID,1.85391,
2012-06-12, 00:18:04,VALID,1003.46,VALID,0,VALID,95.6678,VALID,0,VALID,21.926,VALID,231,VALID,1.39219,
2012-06-12, 00:19:04,VALID,1003.45,VALID,0.5,VALID,95.6831,VALID,0,VALID,21.926,VALID,261,VALID,0.628125,
2012-06-12, 00:20:04,VALID,1003.35,VALID,0.5,VALID,95.6754,VALID,0,VALID,21.9243,VALID,293,VALID,1.22305,
2012-06-12, 00:21:04,VALID,1003.35,VALID,0.5,VALID,95.6754,VALID,0,VALID,21.926,VALID,302,VALID,0.8625,
2012-06-12, 00:22:04,VALID,1003.49,VALID,0,VALID,95.6525,VALID,0,VALID,21.9243,VALID,298,VALID,1.61641,
2012-06-12, 00:23:04,VALID,1003.51,VALID,0.5,VALID,95.6525,VALID,0,VALID,21.965,VALID,313,VALID,1.5582,
2012-06-12, 00:24:04,VALID,1003.5,VALID,0,VALID,95.6678,VALID,0,VALID,21.9633,VALID,312,VALID,1.04492,
2012-06-12, 00:25:04,VALID,1003.47,VALID,0.5,VALID,95.6602,VALID,0,VALID,21.9845,VALID,314,VALID,0.883594,
2012-06-12, 00:26:04,VALID,1003.46,VALID,0,VALID,95.6831,VALID,0,VALID,21.965,VALID,253,VALID,2.70977,
2012-06-12, 00:27:04,VALID,1003.43,VALID,0.5,VALID,95.6907,VALID,0,VALID,21.926,VALID,295,VALID,1.20039,
2012-06-12, 00:28:04,VALID,1003.39,VALID,0,VALID,95.6907,VALID,0,VALID,21.9065,VALID,272,VALID,1.21406,
2012-06-12, 00:29:04,VALID,1003.32,VALID,0.5,VALID,95.7212,VALID,0,VALID,21.8073,VALID,262,VALID,2.15273,
2012-06-12, 00:30:04,VALID,1003.3,VALID,0,VALID,95.7517,VALID,0,VALID,21.7115,VALID,246,VALID,3.13398,
2012-06-12, 00:31:04,VALID,1003.25,VALID,0,VALID,95.7594,VALID,0,VALID,21.6725,VALID,300,VALID,1.41641,
2012-06-12, 00:32:04,VALID,1003.2,VALID,0,VALID,95.7899,VALID,0,VALID,21.614,VALID,260,VALID,2.64766,
2012-06-12, 00:33:04,VALID,1003.15,VALID,0,VALID,95.8204,VALID,0,VALID,21.5555,VALID,272,VALID,5.03242,
2012-06-12, 00:34:04,VALID,1003.25,VALID,0,VALID,95.7975,VALID,0,VALID,21.536,VALID,283,VALID,2.63516,
2012-06-12, 00:35:04,VALID,1003.26,VALID,0.5,VALID,95.7975,VALID,0,VALID,21.497,VALID,294,VALID,3.86445,
2012-06-12, 00:36:04,VALID,1003.26,VALID,0,VALID,95.767,VALID,0.104696,VALID,21.4758,VALID,307,VALID,1.30898,
2012-06-12, 00:37:04,VALID,1003.26,VALID,0,VALID,95.7746,VALID,0,VALID,21.4758,VALID,264,VALID,1.88203,
2012-06-12, 00:38:04,VALID,1003.28,VALID,0,VALID,95.7441,VALID,0,VALID,21.4758,VALID,297,VALID,1.8168,
2012-06-12, 00:39:04,VALID,1003.24,VALID,0,VALID,95.7594,VALID,0,VALID,21.497,VALID,256,VALID,1.77305,
2012-06-12, 00:40:04,VALID,1003.2,VALID,0,VALID,95.7288,VALID,0,VALID,21.5165,VALID,269,VALID,2.58984,
2012-06-12, 00:41:04,VALID,1003.13,VALID,0,VALID,95.7441,VALID,0,VALID,21.5148,VALID,231,VALID,1.05977,
2012-06-12, 00:42:04,VALID,1003.16,VALID,0,VALID,95.7136,VALID,0,VALID,21.5555,VALID,276,VALID,1.1918,
2012-06-12, 00:43:04,VALID,1003.12,VALID,0.5,VALID,95.7212,VALID,0,VALID,21.5538,VALID,295,VALID,1.00977,
2012-06-12, 00:44:04,VALID,1003.15,VALID,0,VALID,95.706,VALID,0,VALID,21.575,VALID,264,VALID,1.45273,
2012-06-12, 00:45:04,VALID,1003.18,VALID,0,VALID,95.7288,VALID,0,VALID,21.5928,VALID,274,VALID,0.637109,
2012-06-12, 00:46:04,VALID,1003.15,VALID,0,VALID,95.7136,VALID,0,VALID,21.6318,VALID,251,VALID,1.64375,
2012-06-12, 00:47:04,VALID,1003.14,VALID,0,VALID,95.6907,VALID,0,VALID,21.6725,VALID,273,VALID,2.88047,
2012-06-12, 00:48:04,VALID,1003.15,VALID,0,VALID,95.6907,VALID,0,VALID,21.6903,VALID,296,VALID,0.944922,
2012-06-12, 00:49:04,VALID,1003.13,VALID,0,VALID,95.6831,VALID,0,VALID,21.7115,VALID,270,VALID,0.697656,
2012-06-12, 00:50:04,VALID,1003.11,VALID,0,VALID,95.6983,VALID,0,VALID,21.7098,VALID,271,VALID,1.45703,
2012-06-12, 00:51:04,VALID,1003.12,VALID,0,VALID,95.6678,VALID,0,VALID,21.7505,VALID,251,VALID,1.36406,
2012-06-12, 00:52:04,VALID,1003.13,VALID,0,VALID,95.6678,VALID,0.104696,VALID,21.7488,VALID,249,VALID,0.951172,
2012-06-12, 00:53:04,VALID,1003.15,VALID,0.5,VALID,95.6831,VALID,0,VALID,21.77,VALID,281,VALID,0.316016,
2012-06-12, 00:54:04,VALID,1003.14,VALID,0,VALID,95.6754,VALID,0,VALID,21.809,VALID,226,VALID,1.44492,
2012-06-12, 00:55:04,VALID,1003.16,VALID,0,VALID,95.6754,VALID,0,VALID,21.8285,VALID,235,VALID,1.12461,
2012-06-12, 00:56:04,VALID,1003.21,VALID,0,VALID,95.6525,VALID,0,VALID,21.8285,VALID,258,VALID,0.997266,
2012-06-12, 00:57:04,VALID,1003.23,VALID,0,VALID,95.6449,VALID,0,VALID,21.8675,VALID,240,VALID,1.56836,
2012-06-12, 00:58:04,VALID,1003.25,VALID,0,VALID,95.6602,VALID,0,VALID,21.887,VALID,220,VALID,0.941797,
2012-06-12, 00:59:04,VALID,1003.13,VALID,0.5,VALID,95.6373,VALID,0,VALID,21.8658,VALID,231,VALID,0.775781,
2012-06-12, 01:00:04,VALID,1003.08,VALID,0,VALID,95.6449,VALID,0,VALID,21.8658,VALID,212,VALID,1.31211,
2012-06-12, 01:01:04,VALID,1003.09,VALID,0,VALID,95.622,VALID,0,VALID,21.8853,VALID,231,VALID,0.8375,
2012-06-12, 01:02:04,VALID,1003.05,VALID,0,VALID,95.6449,VALID,0,VALID,21.926,VALID,211,VALID,1.25234,
2012-06-12, 01:03:04,VALID,1003.08,VALID,0,VALID,95.622,VALID,0,VALID,21.9243,VALID,225,VALID,1.23984,
2012-06-12, 01:04:04,VALID,1003.16,VALID,0,VALID,95.6297,VALID,0,VALID,21.9472,VALID,224,VALID,1.42188,
2012-06-12, 01:05:04,VALID,1003.21,VALID,0,VALID,95.6297,VALID,0,VALID,21.9667,VALID,224,VALID,1.56133,
2012-06-12, 01:06:04,VALID,1003.2,VALID,0.5,VALID,95.6297,VALID,0,VALID,22.0057,VALID,229,VALID,1.77734,
2012-06-12, 01:07:04,VALID,1003.12,VALID,0,VALID,95.6144,VALID,0,VALID,22.0057,VALID,242,VALID,1.01563,
2012-06-12, 01:08:04,VALID,1003.05,VALID,0,VALID,95.6068,VALID,0,VALID,22.0057,VALID,206,VALID,1.92656,
2012-06-12, 01:09:04,VALID,1003.06,VALID,0,VALID,95.6297,VALID,0,VALID,22.0447,VALID,196,VALID,1.53906,
2012-06-12, 01:10:04,VALID,1003.07,VALID,0,VALID,95.5991,VALID,0,VALID,22.0642,VALID,229,VALID,1.07813,
2012-06-12, 01:11:04,VALID,1003.09,VALID,0,VALID,95.5915,VALID,0,VALID,22.0837,VALID,265,VALID,1.62031,
2012-06-12, 01:12:04,VALID,1003.08,VALID,0,VALID,95.5991,VALID,0,VALID,22.0837,VALID,229,VALID,0.976172,
2012-06-12, 01:13:04,VALID,1003.02,VALID,0.5,VALID,95.5915,VALID,0,VALID,22.1032,VALID,196,VALID,1.38828,
2012-06-12, 01:14:04,VALID,1003.01,VALID,0,VALID,95.5915,VALID,0,VALID,22.1227,VALID,216,VALID,1.09492,
2012-06-12, 01:15:04,VALID,1003,VALID,0,VALID,95.5762,VALID,0,VALID,22.1227,VALID,249,VALID,0.741016,
2012-06-12, 01:16:04,VALID,1003.02,VALID,0,VALID,95.5839,VALID,0,VALID,22.1422,VALID,289,VALID,0.775391,
2012-06-12, 01:17:04,VALID,1003.01,VALID,0,VALID,95.5762,VALID,0,VALID,22.1617,VALID,284,VALID,1.06016,
2012-06-12, 01:18:04,VALID,1003,VALID,0.5,VALID,95.5534,VALID,0,VALID,22.1812,VALID,214,VALID,0.496484,
2012-06-12, 01:19:04,VALID,1003.01,VALID,0,VALID,95.5686,VALID,0,VALID,22.199,VALID,230,VALID,1.79062,
2012-06-12, 01:20:04,VALID,1002.95,VALID,0,VALID,95.5381,VALID,0,VALID,22.2186,VALID,248,VALID,0.89375,
2012-06-12, 01:21:04,VALID,1002.92,VALID,0,VALID,95.5381,VALID,0,VALID,22.2576,VALID,241,VALID,1.47227,
2012-06-12, 01:22:04,VALID,1002.94,VALID,0,VALID,95.5457,VALID,0,VALID,22.2771,VALID,234,VALID,2.51367,
2012-06-12, 01:23:04,VALID,1002.95,VALID,0,VALID,95.5534,VALID,0,VALID,22.2966,VALID,222,VALID,1.51953,
2012-06-12, 01:24:04,VALID,1002.9,VALID,0,VALID,95.5305,VALID,0,VALID,22.3161,VALID,240,VALID,3.12891,
2012-06-12, 01:25:04,VALID,1002.86,VALID,0.5,VALID,95.5152,VALID,0.104696,VALID,22.3144,VALID,224,VALID,1.45547,
2012-06-12, 01:26:04,VALID,1002.81,VALID,0,VALID,95.5457,VALID,0,VALID,22.3144,VALID,246,VALID,1.50625,
2012-06-12, 01:27:04,VALID,1002.82,VALID,0,VALID,95.5381,VALID,0,VALID,22.3356,VALID,234,VALID,2.18711,
2012-06-12, 01:28:04,VALID,1002.84,VALID,0,VALID,95.5305,VALID,0,VALID,22.3551,VALID,217,VALID,1.17383,
2012-06-12, 01:29:04,VALID,1002.9,VALID,0,VALID,95.5381,VALID,0,VALID,22.3356,VALID,212,VALID,1.50156,
2012-06-12, 01:30:04,VALID,1002.89,VALID,0,VALID,95.5381,VALID,0,VALID,22.3161,VALID,212,VALID,2.04648,
2012-06-12, 01:31:04,VALID,1002.85,VALID,0,VALID,95.5534,VALID,0,VALID,22.3356,VALID,225,VALID,1.70391,
2012-06-12, 01:32:04,VALID,1002.87,VALID,0,VALID,95.5457,VALID,0,VALID,22.3356,VALID,212,VALID,1.14453,
2012-06-12, 01:33:04,VALID,1002.88,VALID,0,VALID,95.5381,VALID,0,VALID,22.3356,VALID,234,VALID,1.96875,
2012-06-12, 01:34:04,VALID,1002.84,VALID,0,VALID,95.5534,VALID,0,VALID,22.3356,VALID,223,VALID,2.7418,
2012-06-12, 01:35:04,VALID,1002.8,VALID,0,VALID,95.561,VALID,0,VALID,22.3356,VALID,224,VALID,1.47578,
2012-06-12, 01:36:04,VALID,1002.78,VALID,0,VALID,95.561,VALID,0,VALID,22.3144,VALID,213,VALID,1.32422,
2012-06-12, 01:37:04,VALID,1002.73,VALID,0.5,VALID,95.5839,VALID,0,VALID,22.3161,VALID,215,VALID,1.75742,
2012-06-12, 01:38:04,VALID,1002.73,VALID,0,VALID,95.5762,VALID,0,VALID,22.3356,VALID,205,VALID,1.95664,
2012-06-12, 01:39:04,VALID,1002.69,VALID,0,VALID,95.5915,VALID,0,VALID,22.3356,VALID,200,VALID,2.35781,
2012-06-12, 01:40:04,VALID,1002.65,VALID,0,VALID,95.5991,VALID,0,VALID,22.3551,VALID,213,VALID,1.84805,
2012-06-12, 01:41:04,VALID,1002.64,VALID,0,VALID,95.5839,VALID,0,VALID,22.3746,VALID,207,VALID,1.64492,
2012-06-12, 01:42:04,VALID,1002.65,VALID,0,VALID,95.6068,VALID,0,VALID,22.3551,VALID,195,VALID,2.31016,
2012-06-12, 01:43:04,VALID,1002.68,VALID,0,VALID,95.5991,VALID,0,VALID,22.3941,VALID,201,VALID,2.02422,
2012-06-12, 01:44:04,VALID,1002.72,VALID,0,VALID,95.6144,VALID,0,VALID,22.3941,VALID,253,VALID,1.45898,
2012-06-12, 01:45:04,VALID,1002.72,VALID,0,VALID,95.5991,VALID,0,VALID,22.4136,VALID,284,VALID,0.613672,
2012-06-12, 01:46:04,VALID,1002.68,VALID,0,VALID,95.5991,VALID,0,VALID,22.3729,VALID,284,VALID,0.325391,
2012-06-12, 01:47:04,VALID,1002.64,VALID,0,VALID,95.5991,VALID,0,VALID,22.3941,VALID,277,VALID,0.260156,
2012-06-12, 01:48:04,VALID,1002.63,VALID,0,VALID,95.6144,VALID,0.104696,VALID,22.3339,VALID,278,VALID,0.1875,
2012-06-12, 01:49:04,VALID,1002.62,VALID,0,VALID,95.6068,VALID,0,VALID,22.3551,VALID,278,VALID,0.339453,
2012-06-12, 01:50:04,VALID,1002.58,VALID,0,VALID,95.5915,VALID,0,VALID,22.3551,VALID,278,VALID,0.0105469,
2012-06-12, 01:51:04,VALID,1002.57,VALID,0,VALID,95.6068,VALID,0,VALID,22.3551,VALID,278,VALID,0.264453,
2012-06-12, 01:52:04,VALID,1002.57,VALID,0,VALID,95.5839,VALID,0,VALID,22.3568,VALID,278,VALID,0.215625,
2012-06-12, 01:53:04,VALID,1002.55,VALID,0,VALID,95.5991,VALID,0,VALID,22.3356,VALID,278,VALID,0.266406,
2012-06-12, 01:54:04,VALID,1002.52,VALID,0,VALID,95.5991,VALID,0,VALID,22.3356,VALID,278,VALID,0.328906,
2012-06-12, 01:55:04,VALID,1002.54,VALID,0,VALID,95.5991,VALID,0,VALID,22.3356,VALID,246,VALID,0.511719,
2012-06-12, 01:56:04,VALID,1002.51,VALID,0,VALID,95.5991,VALID,0,VALID,22.3356,VALID,247,VALID,0.673047,
2012-06-12, 01:57:04,VALID,1002.48,VALID,0.5,VALID,95.5686,VALID,0,VALID,22.3551,VALID,246,VALID,0.255859,
2012-06-12, 01:58:04,VALID,1002.47,VALID,0,VALID,95.5915,VALID,0,VALID,22.3551,VALID,247,VALID,0.357031,
2012-06-12, 01:59:04,VALID,1002.49,VALID,0,VALID,95.5991,VALID,0,VALID,22.3551,VALID,243,VALID,0.805469,
2012-06-12, 02:00:04,VALID,1002.49,VALID,0,VALID,95.5839,VALID,0,VALID,22.3551,VALID,239,VALID,0.625391,
2012-06-12, 02:01:04,VALID,1002.49,VALID,0,VALID,95.5686,VALID,0,VALID,22.3746,VALID,240,VALID,0.317187,
2012-06-12, 02:02:04,VALID,1002.49,VALID,0,VALID,95.5762,VALID,0,VALID,22.3746,VALID,239,VALID,0.645703,
2012-06-12, 02:03:04,VALID,1002.47,VALID,0,VALID,95.5762,VALID,0,VALID,22.3746,VALID,213,VALID,0.642187,
2012-06-12, 02:04:04,VALID,1002.42,VALID,0,VALID,95.5762,VALID,0,VALID,22.3941,VALID,235,VALID,1.1418,
2012-06-12, 02:05:04,VALID,1002.44,VALID,0,VALID,95.5686,VALID,0,VALID,22.4136,VALID,206,VALID,1.30508,
2012-06-12, 02:06:04,VALID,1002.42,VALID,0,VALID,95.5762,VALID,0,VALID,22.4119,VALID,266,VALID,0.788672,
2012-06-12, 02:07:04,VALID,1002.49,VALID,0,VALID,95.5991,VALID,0,VALID,22.4526,VALID,284,VALID,1.21992,
2012-06-12, 02:08:04,VALID,1002.41,VALID,0,VALID,95.5762,VALID,0,VALID,22.4119,VALID,254,VALID,1.07344,
2012-06-12, 02:09:04,VALID,1002.37,VALID,0,VALID,95.5991,VALID,0,VALID,22.4526,VALID,203,VALID,0.75,
2012-06-12, 02:10:04,VALID,1002.34,VALID,0,VALID,95.5915,VALID,0,VALID,22.4526,VALID,212,VALID,1.36055,
2012-06-12, 02:11:04,VALID,1002.39,VALID,0,VALID,95.5762,VALID,0,VALID,22.4721,VALID,240,VALID,2.36797,
2012-06-12, 02:12:04,VALID,1002.37,VALID,0,VALID,95.6144,VALID,0,VALID,22.4916,VALID,225,VALID,1.40273,
2012-06-12, 02:13:04,VALID,1002.35,VALID,0.5,VALID,95.6144,VALID,0,VALID,22.5111,VALID,275,VALID,0.826953,
2012-06-12, 02:14:04,VALID,1002.32,VALID,0,VALID,95.6373,VALID,0,VALID,22.5094,VALID,248,VALID,1.0875,
2012-06-12, 02:15:04,VALID,1002.32,VALID,0,VALID,95.6449,VALID,0,VALID,22.5094,VALID,262,VALID,0.741016,
2012-06-12, 02:16:04,VALID,1002.32,VALID,0,VALID,95.6449,VALID,0,VALID,22.5094,VALID,269,VALID,1.24531,
2012-06-12, 02:17:04,VALID,1002.24,VALID,0,VALID,95.6297,VALID,0,VALID,22.5094,VALID,242,VALID,0.654297,
2012-06-12, 02:18:04,VALID,1002.24,VALID,0,VALID,95.6449,VALID,0.104696,VALID,22.5289,VALID,221,VALID,1.66211,
2012-06-12, 02:19:04,VALID,1002.24,VALID,0,VALID,95.6602,VALID,0,VALID,22.6087,VALID,219,VALID,2.1,
2012-06-12, 02:20:04,VALID,1002.23,VALID,0,VALID,95.6831,VALID,0,VALID,22.6672,VALID,251,VALID,2.04258,
2012-06-12, 02:21:04,VALID,1002.2,VALID,0,VALID,95.6678,VALID,0,VALID,22.6655,VALID,242,VALID,0.987109,
2012-06-12, 02:22:04,VALID,1002.2,VALID,0,VALID,95.7288,VALID,0,VALID,22.6655,VALID,264,VALID,1.99492,
2012-06-12, 02:23:04,VALID,1002.16,VALID,0,VALID,95.7441,VALID,0,VALID,22.7257,VALID,246,VALID,0.562891,
2012-06-12, 02:24:04,VALID,1002.15,VALID,0,VALID,95.7517,VALID,0,VALID,22.7062,VALID,244,VALID,1.08984,
2012-06-12, 02:25:04,VALID,1002.17,VALID,0,VALID,95.7365,VALID,0,VALID,22.7257,VALID,252,VALID,1.40391,
2012-06-12, 02:26:04,VALID,1002.11,VALID,0,VALID,95.7899,VALID,0,VALID,22.7647,VALID,252,VALID,0.571875,
2012-06-12, 02:27:04,VALID,1002.1,VALID,0,VALID,95.7899,VALID,0,VALID,22.7435,VALID,260,VALID,2.64063,
2012-06-12, 02:28:04,VALID,1002.12,VALID,0,VALID,95.7975,VALID,0,VALID,22.8232,VALID,251,VALID,0.978906,
2012-06-12, 02:29:04,VALID,1002.06,VALID,0,VALID,95.8357,VALID,0,VALID,22.802,VALID,220,VALID,1.37227,
2012-06-12, 02:30:04,VALID,1002.08,VALID,0,VALID,95.828,VALID,0,VALID,22.8427,VALID,266,VALID,1.12383,
2012-06-12, 02:31:04,VALID,1002,VALID,0.5,VALID,95.8662,VALID,0,VALID,22.8427,VALID,276,VALID,1.1375,
2012-06-12, 02:32:04,VALID,1002,VALID,0,VALID,95.8891,VALID,0,VALID,22.841,VALID,280,VALID,1.49258,
2012-06-12, 02:33:04,VALID,1002.01,VALID,0,VALID,95.8967,VALID,0,VALID,22.8427,VALID,237,VALID,2.38398,
2012-06-12, 02:34:04,VALID,1002.01,VALID,0,VALID,95.9196,VALID,0,VALID,22.8605,VALID,219,VALID,1.05117,
2012-06-12, 02:35:04,VALID,1002.03,VALID,0,VALID,95.9348,VALID,0,VALID,22.8623,VALID,237,VALID,1.1957,
2012-06-12, 02:36:04,VALID,1002.04,VALID,0,VALID,95.9501,VALID,0,VALID,22.8818,VALID,241,VALID,2.31094,
2012-06-12, 02:37:04,VALID,1002,VALID,0,VALID,95.9654,VALID,0,VALID,22.9208,VALID,221,VALID,1.14844,
2012-06-12, 02:38:04,VALID,1002.03,VALID,0,VALID,95.9577,VALID,0,VALID,22.88,VALID,256,VALID,1.71133,
2012-06-12, 02:39:04,VALID,1002.02,VALID,0,VALID,95.9425,VALID,0,VALID,22.919,VALID,251,VALID,1.63008,
2012-06-12, 02:40:04,VALID,1002.01,VALID,0,VALID,95.973,VALID,0,VALID,22.9403,VALID,289,VALID,1.4332,
2012-06-12, 02:41:04,VALID,1002.02,VALID,0,VALID,95.973,VALID,0,VALID,22.919,VALID,212,VALID,1.07734,
2012-06-12, 02:42:04,VALID,1001.99,VALID,0,VALID,95.973,VALID,0,VALID,22.9013,VALID,265,VALID,1.59844,
2012-06-12, 02:43:04,VALID,1001.97,VALID,0,VALID,95.9577,VALID,0,VALID,22.8605,VALID,284,VALID,2.20898,
2012-06-12, 02:44:04,VALID,1002,VALID,0.5,VALID,95.8967,VALID,0,VALID,22.919,VALID,238,VALID,1.35234,
2012-06-12, 02:45:04,VALID,1002.01,VALID,0,VALID,95.8662,VALID,0,VALID,22.9403,VALID,233,VALID,0.955859,
2012-06-12, 02:46:04,VALID,1002.01,VALID,0,VALID,95.767,VALID,0,VALID,22.9208,VALID,247,VALID,1.35352,
2012-06-12, 02:47:04,VALID,1002,VALID,0,VALID,95.5076,VALID,0,VALID,22.9598,VALID,256,VALID,1.90078,
2012-06-12, 02:48:04,VALID,1002.04,VALID,0,VALID,95.1795,VALID,0,VALID,22.9598,VALID,303,VALID,2.13125,
2012-06-12, 02:49:04,VALID,1002.05,VALID,0,VALID,94.9583,VALID,0,VALID,22.919,VALID,246,VALID,2.06641,
2012-06-12, 02:50:04,VALID,1002.05,VALID,0,VALID,94.5768,VALID,0.104696,VALID,22.9581,VALID,245,VALID,2.4,
2012-06-12, 02:51:04,VALID,1002.01,VALID,0,VALID,93.9435,VALID,0,VALID,22.9793,VALID,276,VALID,3.23281,
2012-06-12, 02:52:04,VALID,1002.04,VALID,0,VALID,93.3713,VALID,0,VALID,23.0573,VALID,225,VALID,1.14063,
2012-06-12, 02:53:04,VALID,1002.02,VALID,0,VALID,92.4634,VALID,0,VALID,23.0573,VALID,231,VALID,3.68516,
2012-06-12, 02:54:04,VALID,1002.08,VALID,0,VALID,91.7843,VALID,0,VALID,23.1159,VALID,262,VALID,2.21328,
2012-06-12, 02:55:04,VALID,1002.05,VALID,0,VALID,91.7233,VALID,0,VALID,23.0946,VALID,233,VALID,1.59805,
2012-06-12, 02:56:04,VALID,1002.02,VALID,0,VALID,91.1434,VALID,0,VALID,23.1141,VALID,212,VALID,2.7125,
2012-06-12, 02:57:04,VALID,1001.99,VALID,0,VALID,90.762,VALID,0,VALID,23.1336,VALID,291,VALID,2.77617,
2012-06-12, 02:58:04,VALID,1002.04,VALID,0,VALID,90.3652,VALID,0,VALID,23.1726,VALID,263,VALID,2.84492,
2012-06-12, 02:59:04,VALID,1002.01,VALID,0.5,VALID,90.617,VALID,0,VALID,23.2329,VALID,242,VALID,1.06562,
2012-06-12, 03:00:04,VALID,1002.04,VALID,0,VALID,90.9298,VALID,0,VALID,23.1744,VALID,269,VALID,1.86094,
2012-06-12, 03:01:04,VALID,1002,VALID,0,VALID,91.1968,VALID,0,VALID,23.1354,VALID,276,VALID,1.21211,
2012-06-12, 03:02:04,VALID,1001.99,VALID,0,VALID,91.6394,VALID,0,VALID,23.0964,VALID,216,VALID,0.852734,
2012-06-12, 03:03:04,VALID,1002.01,VALID,0,VALID,91.4028,VALID,0,VALID,23.0769,VALID,241,VALID,2.6,
2012-06-12, 03:04:04,VALID,1001.98,VALID,0,VALID,91.1282,VALID,0,VALID,23.1159,VALID,237,VALID,2.60195,
2012-06-12, 03:05:04,VALID,1002.01,VALID,0,VALID,91.0595,VALID,0,VALID,23.1336,VALID,248,VALID,1.27813,
2012-06-12, 03:06:04,VALID,1001.99,VALID,0,VALID,90.7162,VALID,0,VALID,23.1159,VALID,260,VALID,2.41523,
2012-06-12, 03:07:04,VALID,1001.97,VALID,0,VALID,90.5788,VALID,0,VALID,23.1354,VALID,265,VALID,1.77656,
2012-06-12, 03:08:04,VALID,1002,VALID,0,VALID,90.3423,VALID,0,VALID,23.1744,VALID,222,VALID,2.3543,
2012-06-12, 03:09:04,VALID,1001.97,VALID,0,VALID,90.8306,VALID,0,VALID,23.1549,VALID,210,VALID,1.38281,
2012-06-12, 03:10:04,VALID,1001.96,VALID,0,VALID,91.2121,VALID,0,VALID,23.0946,VALID,253,VALID,0.632813,
2012-06-12, 03:11:04,VALID,1001.94,VALID,0,VALID,91.1282,VALID,0,VALID,23.0378,VALID,273,VALID,1.38281,
2012-06-12, 03:12:04,VALID,1001.93,VALID,0,VALID,91.0137,VALID,0,VALID,23.0573,VALID,264,VALID,1.90156,
2012-06-12, 03:13:04,VALID,1001.93,VALID,0,VALID,90.823,VALID,0,VALID,23.0769,VALID,282,VALID,1.40664,
2012-06-12, 03:14:04,VALID,1001.92,VALID,0,VALID,90.9069,VALID,0,VALID,23.0556,VALID,237,VALID,0.600781,
2012-06-12, 03:15:04,VALID,1001.93,VALID,0,VALID,90.9756,VALID,0,VALID,23.0769,VALID,266,VALID,1.04453,
2012-06-12, 03:16:04,VALID,1001.92,VALID,0,VALID,91.296,VALID,0,VALID,23.0183,VALID,236,VALID,0.95625,
2012-06-12, 03:17:04,VALID,1001.88,VALID,0,VALID,91.1968,VALID,0,VALID,22.9988,VALID,276,VALID,2.97031,
2012-06-12, 03:18:04,VALID,1001.93,VALID,0,VALID,90.6399,VALID,0,VALID,23.0573,VALID,288,VALID,1.91758,
2012-06-12, 03:19:04,VALID,1001.91,VALID,0,VALID,90.678,VALID,0,VALID,23.0769,VALID,258,VALID,0.889844,
2012-06-12, 03:20:04,VALID,1001.91,VALID,0,VALID,90.7849,VALID,0,VALID,23.0361,VALID,308,VALID,0.946094,
2012-06-12, 03:21:04,VALID,1001.93,VALID,0,VALID,91.1053,VALID,0,VALID,23.0378,VALID,247,VALID,1.06953,
2012-06-12, 03:22:04,VALID,1001.93,VALID,0,VALID,90.9374,VALID,0,VALID,22.9971,VALID,219,VALID,2.48242,
2012-06-12, 03:23:04,VALID,1001.91,VALID,0,VALID,90.3118,VALID,0,VALID,23.0964,VALID,194,VALID,1.26484,
2012-06-12, 03:24:04,VALID,1001.95,VALID,0,VALID,89.9609,VALID,0,VALID,23.1744,VALID,234,VALID,1.18789,
2012-06-12, 03:25:04,VALID,1001.93,VALID,0,VALID,89.1216,VALID,0,VALID,23.1726,VALID,246,VALID,2.65,
2012-06-12, 03:26:04,VALID,1001.94,VALID,0,VALID,89.5641,VALID,0,VALID,23.2134,VALID,227,VALID,1.94531,
2012-06-12, 03:27:04,VALID,1001.94,VALID,0,VALID,89.5717,VALID,0,VALID,23.1939,VALID,241,VALID,2.19961,
2012-06-12, 03:28:04,VALID,1001.95,VALID,0,VALID,89.2132,VALID,0,VALID,23.1939,VALID,284,VALID,1.61992,
2012-06-12, 03:29:04,VALID,1001.95,VALID,0,VALID,89.3581,VALID,0,VALID,23.1939,VALID,237,VALID,2.03789,
2012-06-12, 03:30:04,VALID,1001.98,VALID,0,VALID,89.6404,VALID,0,VALID,23.1957,VALID,234,VALID,0.904297,
2012-06-12, 03:31:04,VALID,1001.95,VALID,0,VALID,89.3581,VALID,0,VALID,23.1549,VALID,217,VALID,2.93789,
2012-06-12, 03:32:04,VALID,1001.93,VALID,0,VALID,88.9614,VALID,0,VALID,23.1744,VALID,222,VALID,1.95898,
2012-06-12, 03:33:04,VALID,1001.96,VALID,0,VALID,89.1521,VALID,0,VALID,23.1549,VALID,231,VALID,1.3332,
2012-06-12, 03:34:04,VALID,1001.98,VALID,0,VALID,89.0453,VALID,0,VALID,23.1549,VALID,267,VALID,1.94883,
2012-06-12, 03:35:04,VALID,1001.91,VALID,0,VALID,88.824,VALID,0,VALID,23.1549,VALID,320,VALID,2.35156,
2012-06-12, 03:36:04,VALID,1001.98,VALID,0,VALID,88.8317,VALID,0,VALID,23.1549,VALID,265,VALID,1.57305,
2012-06-12, 03:37:04,VALID,1002,VALID,0.5,VALID,88.9309,VALID,0,VALID,23.1354,VALID,247,VALID,1.46719,
2012-06-12, 03:38:04,VALID,1001.98,VALID,0,VALID,89.0529,VALID,0,VALID,23.1354,VALID,237,VALID,1.01055,
2012-06-12, 03:39:04,VALID,1001.92,VALID,0,VALID,88.1908,VALID,0,VALID,23.1354,VALID,227,VALID,4.36758,
2012-06-12, 03:40:04,VALID,1001.99,VALID,0,VALID,87.6567,VALID,0,VALID,23.2524,VALID,258,VALID,2.26094,
2012-06-12, 03:41:04,VALID,1002,VALID,0,VALID,87.6033,VALID,0,VALID,23.2524,VALID,230,VALID,2.0918,
2012-06-12, 03:42:04,VALID,1002.01,VALID,0,VALID,87.9695,VALID,0,VALID,23.2524,VALID,263,VALID,0.999219,
2012-06-12, 03:43:04,VALID,1002.01,VALID,0,VALID,88.2671,VALID,0,VALID,23.1939,VALID,275,VALID,1.44531,
2012-06-12, 03:44:04,VALID,1002.01,VALID,0,VALID,88.2671,VALID,0,VALID,23.1531,VALID,231,VALID,1.60586,
2012-06-12, 03:45:04,VALID,1002.02,VALID,0,VALID,88.6409,VALID,0,VALID,23.1549,VALID,218,VALID,0.785156,